Location: Newark
(35.8967°N, 14.4625°E)
Time: 07:31:54
(UTC+00:00)

N. Korean satellite - Pass Details

Date: 22 November 2019
Orbit: 455 x 507 km, 97.2° (Epoch: 12 December)

Event Time Altitude Azimuth Distance (km) Brightness Sun altitude
Rises 16:59:08 0° 200° (SSW) 2,555 10.8 -13.8°
Reaches altitude 10° 17:01:39 10° 220° (SW) 1,688 10.1 -14.3°
Maximum altitude 17:04:16 19° 266° (W) 1,254 9.7 -14.8°
Drops below altitude 10° 17:06:55 10° 312° (NW) 1,713 9.8 -15.3°
Sets 17:09:30 0° 331° (NNW) 2,608 10.5 -15.8°
